Gazpromneft East — UBOF4 — position and weather

sailwx.info

Track history (hours):
 
Tides and Currents Weather Stations Pressure Air Temp Water Temp Dewpoint Dewpoint Depression Visibility Wind Speed Wind Dir Waves Ship Positions

Gazpromneft East

Last reported at 2014-Oct-23 07:15 UTC. Time now 2014-Oct-23 12:31 UTC.
Position N 59°55' E 030°14'.

Length 79 m; draft 4 m.

Type: Tanker. MMSI: 273335320.

Date/timePositionNaut miles runAvg speedWind from/ knotsBaromVisibWave heightAir tempDewpointWater temp
2014-Oct-23 07:15N 59°55' E 030°14'3 0.4
2014-Oct-22 23:22N 59°53' E 030°11'1 0.2
2014-Oct-22 15:12N 59°53' E 030°13'0 0.0
2014-Oct-22 14:08N 59°53' E 030°13'0 0.2
2014-Oct-22 13:33N 59°53' E 030°14'0 0.0
2014-Oct-22 12:21N 59°53' E 030°14'0 0.1
2014-Oct-22 11:25N 59°53' E 030°13'0 0.0
2014-Oct-22 06:20N 59°53' E 030°13'0 0.0
2014-Oct-20 16:19N 59°53' E 030°13'0 0.0
2014-Oct-20 15:32N 59°53' E 030°13'0 0.0
2014-Oct-20 14:26N 59°53' E 030°13'0 0.0
2014-Oct-20 11:05N 59°53' E 030°14'0 0.0
2014-Oct-20 10:27N 59°53' E 030°14'1 0.2
2014-Oct-20 05:33N 59°53' E 030°12'0 0.0
2014-Oct-19 16:24N 59°53' E 030°12'1 1.0
2014-Oct-19 15:32N 59°53' E 030°13'  
2014-Oct-16 14:33N 59°53' E 030°11'1 0.4
2014-Oct-16 12:04N 59°53' E 030°13'1 1.8
2014-Oct-16 11:33N 59°52' E 030°12'1 0.1
2014-Oct-15 14:04N 59°53' E 030°10'2 0.4
2014-Oct-15 09:29N 59°53' E 030°13'0 0.0
2014-Oct-15 00:29N 59°53' E 030°13'0 0.0
2014-Oct-14 16:17N 59°53' E 030°13'0 0.0
2014-Oct-14 15:19N 59°53' E 030°13'0 0.0
2014-Oct-14 14:29N 59°53' E 030°13'0 0.0
2014-Oct-14 11:08N 59°53' E 030°13'0 0.0
2014-Oct-14 07:24N 59°53' E 030°13'  
Track history (hours):
 
Tides and Currents Weather Stations Pressure Air Temp Water Temp Dewpoint Dewpoint Depression Visibility Wind Speed Wind Dir Waves Ship Positions

Gazpromneft East

Last reported at 2014-Oct-23 07:15 UTC. Time now 2014-Oct-23 12:31 UTC.
Position N 59°55' E 030°14'.

Length 79 m; draft 4 m.

Type: Tanker. MMSI: 273335320.

Date/timePositionNaut miles runAvg speedWind from/ knotsBaromVisibWave heightAir tempDewpointWater temp
2014-Oct-23 07:15N 59°55' E 030°14'3 0.4
2014-Oct-22 23:22N 59°53' E 030°11'1 0.2
2014-Oct-22 15:12N 59°53' E 030°13'0 0.0
2014-Oct-22 14:08N 59°53' E 030°13'0 0.2
2014-Oct-22 13:33N 59°53' E 030°14'0 0.0
2014-Oct-22 12:21N 59°53' E 030°14'0 0.1
2014-Oct-22 11:25N 59°53' E 030°13'0 0.0
2014-Oct-22 06:20N 59°53' E 030°13'0 0.0
2014-Oct-20 16:19N 59°53' E 030°13'0 0.0
2014-Oct-20 15:32N 59°53' E 030°13'0 0.0
2014-Oct-20 14:26N 59°53' E 030°13'0 0.0
2014-Oct-20 11:05N 59°53' E 030°14'0 0.0
2014-Oct-20 10:27N 59°53' E 030°14'1 0.2
2014-Oct-20 05:33N 59°53' E 030°12'0 0.0
2014-Oct-19 16:24N 59°53' E 030°12'1 1.0
2014-Oct-19 15:32N 59°53' E 030°13'  
2014-Oct-16 14:33N 59°53' E 030°11'1 0.4
2014-Oct-16 12:04N 59°53' E 030°13'1 1.8
2014-Oct-16 11:33N 59°52' E 030°12'1 0.1
2014-Oct-15 14:04N 59°53' E 030°10'2 0.4
2014-Oct-15 09:29N 59°53' E 030°13'0 0.0
2014-Oct-15 00:29N 59°53' E 030°13'0 0.0
2014-Oct-14 16:17N 59°53' E 030°13'0 0.0
2014-Oct-14 15:19N 59°53' E 030°13'0 0.0
2014-Oct-14 14:29N 59°53' E 030°13'0 0.0
2014-Oct-14 11:08N 59°53' E 030°13'0 0.0
2014-Oct-14 07:24N 59°53' E 030°13'  

Dump ship's entire track history